TELSTAR 18V (APSTAR 5C) (43611 NORAD) Tracking and Keplerian Element Data

This shows tracking and keplerian element data for the satellite.

Feedback or suggestion? Click here.




ElementValue
Catalog43611
NameTELSTAR 18V (APSTAR 5C)
Epoch Orbit590
Epoch Day93.9063751
Epoch Year2020
RAAN186.4106
Inclination0.0218
Eccentricity0.0002056
Argument of Perigee180.3468
Mean Anonmoly289.2351
Mean Motion1.0026927
Decay Rate-3.03E-06
L11 43611U 18069A 20093.90637510 -.00000303 00000-0 00000-0 0 9991
L22 43611 0.0218 186.4106 0002056 180.3468 289.2351 1.00269270 5908

Live tracking and technical data element details for TELSTAR 18V (APSTAR 5C) (NORAD 43611). TELSTAR 18V (APSTAR 5C) can be tracked NOW for your location showing map with azimuth and elevation plus other details from your city location.

Track the satellite on the map from your city or location and see movement details for azimuth, elevation, latitude, longitude, range, height, and movement on the map or in text.







IsCatalogInMostPopularTable: catalog: 43611, numindb: 455
Update: records affected: 1



GetName: 43611 TELSTAR 18V (APSTAR 5C)

Hit Count: updated at: Thu, 09 Apr 2020 16:24:37 GMT